Regional Weather Roundup
Issued by NWS

Home | Current Version | Previous Version | Text Only | Print | Product List | Glossary Off
Versions: 1 2 3 4 5 6 7 8 9 10 11 12 13 14 15 16 17 18 19 20 21 22 23 24 25 26 27 28 29 30 31 32 33 34 35 36 37 38 39 40 41 42 43 44 45 46 47 48 49 50

000
ASUS43 KLMK 212310
RWRKY
KENTUCKY REGIONAL WEATHER ROUNDUP
NATIONAL WEATHER SERVICE LOUISVILLE KY
700 PM EDT MON JUL 21 2014

NOTE "FAIR" INDICATES FEW OR NO CLOUDS BELOW 12,000 FEET
WITH NO SIGNIFICANT WEATHER AND/OR OBSTRUCTIONS TO VISIBILITY.

KYZ001>023-026-027-061>063-070>075-220000-
WESTERN AND SOUTH CENTRAL KENTUCKY

CITY           SKY/WX    TMP DP  RH WIND       PRES   REMARKS
PADUCAH        SUNNY     87  65  47 NW6       30.05R
HENDERSON      SUNNY     84  64  51 CALM      30.04F
OWENSBORO      SUNNY     88  65  46 N6        30.05F HX  90
HOPKINSVILLE   SUNNY     89  65  44 NE7       30.03F HX  90
BOWLING GREEN  SUNNY     91  60  35 CALM      30.04F HX  90
GLASGOW        MOSUNNY   88  63  42 SE3       30.05R
$$

KYZ024-025-028>034-038-045-046-053-220000-
NORTH CENTRAL KENTUCKY

CITY           SKY/WX    TMP DP  RH WIND       PRES   REMARKS
LOUISVILLE/SDF MOSUNNY   88  64  44 CALM      30.05S
LOUISVILLE/LOU MOSUNNY   87  64  46 NE3       30.06S
FORT KNOX      SUNNY     85  67  53 N6        30.05S
$$

KYZ035>037-039>044-047>052-055>060-089>105-220000-
NORTHEAST KENTUCKY

CITY           SKY/WX    TMP DP  RH WIND       PRES   REMARKS
LEXINGTON      SUNNY     88  66  48 N3        30.08S HX  90
COVINGTON      MOSUNNY   85  63  47 NW5       30.08S
FRANKFORT      MOSUNNY   88  65  46 N3        30.06S HX  90
$$

KYZ054-064>069-076>088-106>120-220000-
SOUTHEAST KENTUCKY

CITY           SKY/WX    TMP DP  RH WIND       PRES   REMARKS
JACKSON        PTSUNNY   85  67  54 VRB3      30.10R
LONDON         SUNNY     85  68  56 E5        30.08S
SOMERSET       PTSUNNY   82  66  57 NE5       30.08S
MIDDLESBORO    MOSUNNY   87  67  51 CALM      30.08R HX  90
MONTICELLO     CLEAR     87  73  62 CALM      30.08S HX  94
$$




USA.gov is the U.S. government's official web portal to all federal, state and local government web resources and services.